This is the latest recevied weather packets stored in our database for station/object ac2ev. If no packets are shown the sender has not sent any weather packets the latest 10 day(s).
| Time | Temp. | Humidity | Pressure | Rain* | Wind** | Luminosity | Snow |
|---|---|---|---|---|---|---|---|
| 1777919941 | 22.22° C | 41% | 1003.3 hPa | 0 mm | - | - | - |
| 1777919643 | 22.22° C | 40% | 1003.4 hPa | 0 mm | - | - | - |
| 1777919341 | 22.22° C | 40% | 1003.6 hPa | 0 mm | - | - | - |
| 1777919042 | 21.67° C | 40% | 1003.6 hPa | 0 mm | - | - | - |
| 1777918741 | 21.67° C | 40% | 1003.6 hPa | 0 mm | - | - | - |
| 1777918442 | 21.67° C | 42% | 1003.7 hPa | 0 mm | - | - | - |
| 1777918141 | 21.67° C | 41% | 1003.8 hPa | 0 mm | - | - | - |
| 1777917842 | 22.22° C | 42% | 1003.8 hPa | 0 mm | - | - | - |
| 1777917542 | 21.67° C | 41% | 1004 hPa | 0 mm | - | - | - |
| 1777917241 | 21.67° C | 41% | 1003.8 hPa | 0 mm | - | - | - |
| 1777916942 | 21.67° C | 44% | 1003.9 hPa | 0 mm | - | - | - |
| 1777916642 | 21.67° C | 43% | 1003.9 hPa | 0 mm | - | - | - |
| 1777916341 | 21.11° C | 43% | 1004 hPa | 0 mm | - | - | - |
| 1777916041 | 21.11° C | 44% | 1004 hPa | 0 mm | - | - | - |
| 1777915742 | 21.11° C | 42% | 1004.1 hPa | 0 mm | - | - | - |
| 1777915440 | 21.11° C | 43% | 1004.1 hPa | 0 mm | - | - | - |
| 1777915142 | 21.11° C | 44% | 1004.1 hPa | 0 mm | - | - | - |
| 1777914842 | 20.56° C | 44% | 1004.1 hPa | 0 mm | - | - | - |
| 1777914541 | 20.56° C | 44% | 1004.2 hPa | 0 mm | - | - | - |
| 1777914241 | 20.56° C | 45% | 1004.2 hPa | 0 mm | - | - | - |
| 1777913942 | 20.56° C | 46% | 1004.3 hPa | 0 mm | - | - | - |
| 1777913716 | 20° C | 45% | 1004.3 hPa | 0 mm | - | - | - |
| 1777913341 | 20° C | 46% | 1004.3 hPa | 0 mm | - | - | - |
| 1777913042 | 20° C | 45% | 1004.4 hPa | 0 mm | - | - | - |
| 1777912741 | 20.56° C | 44% | 1004.5 hPa | 0 mm | - | - | - |
* Rain latest hour (hover to see other rain measurements)
** Current wind speed in m/s (hover to see current wind gust speed)